Regional Weather Roundup
Issued by NWS

Current Version | Previous Version | Text Only | Print | Product List | Glossary Off
Versions: 1 2 3 4 5 6 7 8 9 10 11 12 13 14 15 16 17 18 19 20 21 22 23 24 25 26 27 28 29 30 31 32 33 34 35 36 37 38 39 40 41 42 43 44 45 46 47 48 49 50

000
ASUS44 KBMX 300710
RWRAL

ALABAMA REGIONAL WEATHER ROUNDUP
NATIONAL WEATHER SERVICE BIRMINGHAM AL
200 AM CDT SAT JUL 30 2016

NOTE: "FAIR" INDICATES FEW OR NO CLOUDS BELOW 12,000 FEET
WITH NO SIGNIFICANT WEATHER AND/OR OBSTRUCTIONS TO VISIBILITY.

THE REMARK "TC" DENOTES TEMPERATURE IN DEGREES CELSIUS.

ALZ001>011-014-016>018-020-300800-
NORTH ALABAMA

CITY           SKY/WX    TMP DP  RH WIND       PRES   REMARKS
MUSCLE SHOALS  CLEAR     72  69  90 S3        29.97S
HUNTSVILLE     CLEAR     71  66  84 SW3       29.96F
DECATUR        CLEAR     70  68  93 CALM      29.97F
HALEYVILLE     FAIR      70  70 100 CALM      30.00F
GADSDEN        CLEAR     73  72  96 CALM      29.98F
$$

ALZ012-013-022-023-030>036-040>044-300800-
WEST CENTRAL ALABAMA

CITY           SKY/WX    TMP DP  RH WIND       PRES   REMARKS
TUSCALOOSA     PTCLDY    76  75  97 SW3       29.98F
$$

ALZ015-024>027-033>036-040>044-300800-
CENTRAL ALABAMA

CITY           SKY/WX    TMP DP  RH WIND       PRES   REMARKS
BIRMINGHAM     CLEAR     80  72  76 SW6       30.00F
MONTGOMERY     CLEAR     77  72  84 SW6       29.99F
SHELBY CO ARPT CLEAR     76  72  87 CALM      29.99F
MAXWELL AFB    CLEAR     76  74  91 S2        29.99S
GREENVILLE     FAIR      76  71  85 SW5       30.01S
$$

ALZ019-021-028-029-037-038-045>048-300800-
EAST CENTRAL ALABAMA

CITY           SKY/WX    TMP DP  RH WIND       PRES   REMARKS
ANNISTON       CLEAR     73  71  93 SE5       29.99F
ALEXANDER CITY PTCLDY    75  75 100 CALM      30.01S FOG
AUBURN         CLEAR     77  72  84 W6        30.03S
$$

ALZ051>064-300800-
SOUTHWEST ALABAMA

CITY           SKY/WX    TMP DP  RH WIND       PRES   REMARKS
MOBILE         CLEAR     77  74  90 CALM      30.02F
BROOKLEY FIELD CLEAR     76  76 100 SW3       30.02F
EVERGREEN      CLEAR     73  72  96 CALM      30.02S
$$

ALZ049-050-065>069-300800-
SOUTHEAST ALABAMA

CITY           SKY/WX    TMP DP  RH WIND       PRES   REMARKS
DOTHAN         CLEAR     76  73  91 SW5       30.04F
OZARK          CLEAR     74  74 100 CALM      30.00F
TROY           CLEAR     73  72  96 CALM      30.02S
EUFAULA        FAIR      73  71  93 CALM      29.99F
$$



USA.gov is the U.S. government's official web portal to all federal, state and local government web resources and services.